User: anonymous   Login
Location: Unspecified
(0.0000°N, 0.0000°E)
Time: 17:21:57
(UTC+01:00)
Language:

Atlas Centaur 2 - Orbit

View from above orbital plane
View from above orbital plane
View from above satellite
View from above satellite

Ground track
Ground track

The orbit data is extracted from the following two-line orbital elements,

1 00694U 63047A   15028.85186159  .00002942  00000-0  38341-3 0  6950
2 00694 030.3548 269.0078 0594428 047.2749 030.2865 14.00406187560535
Epoch (UTC): 28 January 2015 20:26:40
Eccentricity: 0.0594428
inclination: 30.3548°
perigee height: 460 km
apogee height: 1324 km
right ascension of ascending node: 269.0078°
argument of perigee: 47.2749°
revolutions per day: 14.00406187
mean anomaly at epoch: 30.2865°
orbit number at epoch: 56053

The dashed part of the orbit path shows where the satellite is in the earth's shadow,  

DLR